Regional Weather Roundup
Issued by NWS

Home | Current Version | Previous Version | Graphics & Text | Print | Product List | Glossary On
Versions: 1 2 3 4 5 6 7 8 9 10 11 12 13 14 15 16 17 18 19 20 21 22 23 24 25 26 27 28 29 30 31 32 33 34 35 36 37 38 39 40 41 42 43 44 45 46 47 48 49 50
332
ASUS45 KPSR 270410
RWRAZ

ARIZONA HOURLY REGIONAL WEATHER ROUNDUP
NATIONAL WEATHER SERVICE PHOENIX AZ
900 PM MST THU MAY 26 2016

NOTE: FAIR INDICATES FEW OR NO CLOUDS BELOW 12,000 FEET WITH NO
SIGNIFICANT WEATHER AND/OR OBSTRUCTIONS TO VISIBILITY.

AZZ001>003-036-270500-
NORTHWEST ARIZONA

CITY           SKY/WX    TMP DP  RH WIND       PRES   REMARKS
BULLHEAD CITY  CLEAR     82  34  17 SW5       29.81R
KINGMAN        CLEAR     64  27  24 S9        29.93R
$$

AZZ004>008-015-016-018-270500-
NORTH CENTRAL ARIZONA

CITY           SKY/WX    TMP DP  RH WIND       PRES   REMARKS
GRAND CANYON   CLEAR     39  27  62 CALM      30.08R
WILLIAMS       CLEAR     46  28  49 CALM      30.16R
PRESCOTT       CLEAR     61  28  28 NW6       30.02R
FLAGSTAFF      PTCLDY    42  29  59 CALM      30.09R
PAYSON         MOCLDY    61  27  27 SW3       30.03R
PAGE           PTCLDY    63  33  32 W7        29.93R
$$

AZZ009>014-017-270500-
NORTHEAST ARIZONA

CITY           SKY/WX    TMP DP  RH WIND       PRES   REMARKS
WINSLOW        PTCLDY    58  29  33 W10       30.00R
SAINT JOHNS    CLOUDY    57  30  35 W9        30.01R
WINDOW ROCK    MOCLDY    50  31  48 NW7       30.04R
SHOW LOW       MOCLDY    54  23  30 SW7       30.07R
$$

AZZ023-270500-
GREATER PHOENIX AREA

CITY           SKY/WX    TMP DP  RH WIND       PRES   REMARKS
PHOENIX        CLEAR     80  29  15 S6        29.81S
BUCKEYE        CLEAR     75  32  20 SW5       29.85R
LUKE AFB       CLEAR     78  33  19 SW10      29.81R
DEER VALLEY    CLEAR     77  29  17 S5        29.83R
SCOTTSDALE     CLEAR     78  30  17 CALM      29.85R
MESA-GATEWAY   CLEAR     75  30  19 SW5       29.86R
CHANDLER       CLEAR     77  30  18 S7        29.84R
$$

AZZ027-028-270500-
SOUTHWEST MARICOPA COUNTY AND PINAL COUNTY

CITY           SKY/WX    TMP DP  RH WIND       PRES   REMARKS
CASA GRANDE    CLEAR     73  28  19 CALM      29.87S
GILA BEND      CLEAR     77  27  16 S6        29.83R
$$

AZZ503-504-507>509-270500-
SOUTHEAST ARIZONA

CITY           SKY/WX    TMP DP  RH WIND       PRES   REMARKS
TUCSON         CLEAR     73  28  18 N10       29.93R
DAVIS-MONTHAN  CLEAR     72  29  20 NW10      29.92R
NOGALES        CLEAR     66  22  18 CALM      29.98R
SIERRA VISTA   CLEAR     61  21  21 W10       30.02R
DOUGLAS        CLEAR     62  20  19 NW7       29.97R
SAFFORD        CLEAR     68  22  17 NW9       29.91R
$$

AZZ020-021-025-026-031-270500-
SOUTHWEST ARIZONA

CITY           SKY/WX    TMP DP  RH WIND       PRES   REMARKS
YUMA           CLEAR     80  39  23 SW6       29.81S
$$

CAZ031-033-041-043-047-048-061-270500-
SOUTHERN CALIFORNIA

CITY           SKY/WX    TMP DP  RH WIND       PRES   REMARKS
DOWNTOWN L.A.  CLEAR     62  52  69 CALM      29.97R
L.A. AIRPORT   CLEAR     60  54  80 W6        29.97S
SAN DIEGO      MOCLDY    65  55  70 NW7       30.00S
BURBANK        CLEAR     62  49  62 SE8       29.96S
ONTARIO        PTCLDY    63  52  67 SW8       29.96S
RIVERSIDE      CLEAR     64  52  64 W6        29.97R
PALM SPRINGS   CLEAR     81  46  29 NW23G33   29.82R
EL CENTRO NAS  CLEAR     79  47  32 W16       29.82R
IMPERIAL       CLEAR     78  48  34 W10       29.80R
BLYTHE         CLEAR     84  40  21 SW8       29.80R
NEEDLES        CLEAR     83  31  15 S7        29.80R
$$

NVZ020-UTZ003-270500-
SOUTHERN NEVADA-UTAH

CITY           SKY/WX    TMP DP  RH WIND       PRES   REMARKS
LAS VEGAS      PTCLDY    80  31  16 SW7       29.81R
SALT LAKE CITY PTCLDY    61  38  42 SE7       29.94S
$$

NMZ009-TXZ055-270500-
NEW MEXICO-WEST TEXAS

CITY           SKY/WX    TMP DP  RH WIND       PRES   REMARKS
ALBUQUERQUE    PTCLDY    61  20  20 N8        29.93R
EL PASO        CLEAR     75  12   9 NW20G28   29.86R
$$


........................KEY........................
SKY/WX - SKY CONDITION/WEATHER
TMP    - TEMPERATURE IN FAHRENHEIT
DP     - DEW POINT IN FAHRENHEIT
RH     - RELATIVE HUMIDITY IN PERCENT
WIND   - DIRECTION AND SPEED IN MILES PER HOUR (MPH)
VRB    - VARIABLE WIND DIRECTION
PRES   - MEAN SEA LEVEL PRESSURE IN INCHES OF MERCURY
         F - FALLING PRESSURE   R - RISING PRESSURE
         S - STEADY PRESSURE
VSB    - VISIBILITY IN MILES
HX     - HEAT INDEX IN FAHRENHEIT
WCI    - WIND CHILL INDEX IN FAHRENHEIT
TC     - TEMPERATURE IN CELSIUS WHICH IS ALSO KNOWN AS
         TEMPERATURE IN CENTIGRADE
AFB    - AIR FORCE BASE
         LUKE AFB IS LUKE AIR FORCE BASE
         DAVIS-MONTHAN IS DAVIS-MONTHAN AIR FORCE BASE
NAS    - NAVAL AIR STATION
         EL CENTRO NAS IS EL CENTRO NAVAL AIR STATION
N/A    - NOT AVAILABLE





USA.gov is the U.S. government's official web portal to all federal, state and local government web resources and services.